Starlink 30936

operational
NORAD ID: 58534 Int'l Des: 2023-192 Owner: SPXS Country: US Constellation: starlink
LEOCIRCULAR

About Starlink 30936

Description loading...

Live Position

Loading 3D Globe...

Upcoming Passes

Altitude History

Altitude vs Time

uPlot chart will show altitude changes over time

Two-Line Element Set

1 58534U 23192D 26035.75472611 .00000852 00000-0 40894-4 0 9995
2 58534 53.1589 205.7509 0000647 58.6135 301.4929 15.30197573121082
Epoch: Feb 4, 2026 • Age: 18 hours

Current Status

Altitude 475.5 km
Velocity 7.63 km/s
Sub-Earth Point 11.49°N, 56.75°E
Launch Date Dec 8, 2023
Age 2.1 years
Type internet

Technical Details

Classification Payload
Mass 730.00 kg
Dry Mass 700.00 kg
Total Mass 730.00 kg
Length 0.30 m
Diameter 4.10 m
Span 29.00 m
Shape Box + pan
Manufacturer SPXS
Bus Type Starlink V2M
Phase Status In Orbit
Owner/State SPXS/US

Large Constellations

Loading constellations...